period_start,C,m1,H,J0,J1,J2,J3,J4,J5,JA,JB,JC,JD,JJ,JK,JN,#
2014-11-05 00:02:04,0.11,3.84,0.00,21.40,25.99,28.84,4.80,27.37,1009.77,2035.32,2123.70,2398.99,2588.19,349.98,347.18,34.36,0000 0000 0000 0000 000000
2014-11-05 07:20:09,0.03,3.98,0.00,21.13,26.27,29.41,4.76,27.48,1008.33,2034.01,2085.99,2371.00,2557.76,350.02,346.87,34.41,0000 0000 0000 0000 000000
2014-11-05 07:25:10,0.07,3.99,0.00,21.17,26.25,29.42,4.74,27.38,1008.34,2034.02,2085.46,2370.97,2557.09,350.02,347.28,34.44,0000 0000 0000 0000 000000
2014-11-05 07:30:11,0.07,3.99,0.00,21.19,26.25,29.39,4.81,27.45,1008.34,2034.02,2085.01,2370.38,2556.99,350.18,347.24,34.46,0000 0000 0000 0000 000000
2014-11-05 07:35:12,0.02,3.99,0.00,21.21,26.22,29.40,4.71,27.49,1008.41,2034.05,2084.96,2370.03,2556.87,349.82,346.76,34.49,0000 0000 0000 0000 000000
2014-11-05 07:40:13,0.08,3.99,0.00,21.24,26.22,29.35,4.79,27.57,1008.35,2034.02,2084.15,2369.99,2556.09,350.25,347.44,34.52,0000 0000 0000 0000 000000
2014-11-05 07:45:14,0.03,3.99,0.00,21.24,26.20,29.33,4.81,27.43,1008.50,2034.09,2083.99,2369.91,2556.00,349.90,346.71,34.55,0000 0000 0000 0000 000000
2014-11-05 07:50:15,0.13,4.00,0.00,21.22,26.20,29.27,4.85,27.53,1008.55,2034.21,2083.39,2369.24,2555.96,350.30,347.13,34.58,0000 0000 0000 0000 000000
2014-11-05 07:55:16,0.03,4.00,0.00,21.23,26.17,29.28,4.84,27.44,1008.39,2034.23,2083.00,2369.02,2555.29,350.16,347.15,34.61,0000 0000 0000 0000 000000
2014-11-05 08:00:17,0.07,4.00,0.00,21.28,26.17,29.26,4.83,27.36,1008.44,2034.36,2082.69,2368.98,2555.01,350.53,347.26,34.64,0000 0000 0000 0000 000000
2014-11-05 08:05:18,0.12,4.00,0.00,21.29,26.15,29.24,4.82,27.32,1008.62,2034.64,2082.03,2368.69,2554.99,350.25,347.12,34.67,0000 0000 0000 0000 000000
2014-11-05 08:10:19,0.06,4.01,0.00,21.26,26.15,29.21,4.84,27.43,1008.37,2034.78,2081.96,2368.10,2554.58,350.41,347.12,34.70,0000 0000 0000 0000 000000
2014-11-05 08:15:20,0.09,4.01,0.00,21.27,26.14,29.17,4.72,27.38,1008.33,2034.86,2081.31,2368.01,2554.04,350.04,347.03,34.73,0000 0000 0000 0000 000000
2014-11-05 08:20:22,0.01,4.01,0.00,21.27,26.12,29.18,4.78,27.42,1008.33,2034.93,2081.00,2367.97,2553.99,350.23,347.13,34.76,0000 0000 0000 0000 000000
2014-11-05 08:25:23,0.08,4.01,0.00,21.28,26.12,29.12,4.78,27.49,1008.35,2034.95,2080.70,2367.59,2553.83,349.88,346.62,34.79,0000 0000 0000 0000 000000
2014-11-05 08:30:24,0.08,4.01,0.00,21.30,26.12,29.12,4.73,27.52,1008.49,2034.96,2080.04,2367.03,2553.09,350.23,347.00,34.82,0000 0000 0000 0000 000000
2014-11-05 08:35:26,0.01,4.01,0.00,21.32,26.11,29.12,4.74,27.56,1008.46,2034.97,2079.94,2367.00,2553.00,349.63,346.61,34.85,0000 0000 0000 0000 000000
2014-11-05 08:40:27,0.06,4.02,0.00,21.33,26.10,29.09,4.85,27.43,1008.57,2034.96,2079.11,2366.99,2552.79,350.30,347.07,34.87,0000 0000 0000 0000 000000
2014-11-05 08:45:28,0.07,4.02,0.00,21.32,26.10,29.10,4.88,27.47,1008.39,2034.98,2078.99,2366.73,2552.19,349.74,346.96,34.90,0000 0000 0000 0000 000000
2014-11-05 08:50:30,0.07,4.02,0.00,21.29,26.10,29.10,4.75,27.42,1008.32,2034.99,2078.58,2366.13,2552.00,349.59,346.32,34.93,0000 0000 0000 0000 000000
2014-11-05 08:55:31,0.02,4.02,0.00,21.31,26.10,29.07,4.76,27.37,1008.10,2034.99,2078.03,2366.01,2551.97,349.81,346.46,34.96,0000 0000 0000 0000 000000
2014-11-05 09:00:32,0.02,1.88,0.00,21.33,26.10,29.05,4.30,23.62,1007.89,2036.59,2819.09,2888.10,3126.03,309.78,304.76,0.01,0000 0000 0000 0000 000002
2014-11-05 09:05:34,0.03,0.00,0.00,21.31,26.10,29.04,4.88,26.51,1008.19,2037.99,3464.94,3344.26,3627.90,350.24,347.21,0.02,0000 0000 0000 0000 000000
2014-11-05 09:10:35,0.04,0.00,0.00,21.29,26.10,29.03,4.84,26.46,1008.27,2037.98,3463.46,3343.73,3626.77,350.15,346.90,0.05,0000 0000 0000 0000 000000
2014-11-05 09:15:36,0.05,0.00,0.00,21.33,26.09,29.05,4.78,26.56,1007.93,2037.99,3462.14,3342.97,3625.68,349.77,346.42,0.08,0000 0000 0000 0000 000000
2014-11-05 09:20:37,0.07,0.00,0.00,21.33,26.08,29.06,4.76,26.68,1007.94,2037.99,3460.69,3342.10,3624.50,350.08,346.76,0.11,0000 0000 0000 0000 000000
2014-11-05 09:25:39,0.09,0.01,0.00,21.32,26.08,29.02,4.85,26.68,1007.84,2037.99,3459.16,3341.14,3623.37,350.39,347.10,0.14,0000 0000 0000 0000 000000
2014-11-05 09:30:40,0.10,0.01,0.00,21.29,26.07,28.97,4.75,26.57,1007.80,2037.99,3457.71,3340.20,3622.25,349.88,346.51,0.17,0000 0000 0000 0000 000000
2014-11-05 09:35:41,0.09,0.01,0.00,21.31,26.07,29.03,4.83,26.52,1007.78,2037.99,3456.37,3339.39,3621.18,350.16,346.81,0.20,0000 0000 0000 0000 000000
2014-11-05 09:40:42,0.09,0.02,0.00,21.32,26.07,29.01,4.75,26.52,1007.79,2037.99,3455.09,3338.39,3620.11,350.24,346.78,0.22,0000 0000 0000 0000 000000
2014-11-05 09:45:43,0.06,0.02,0.00,21.35,26.07,29.04,4.83,26.55,1007.69,2037.99,3454.07,3337.84,3619.21,350.40,346.80,0.25,0000 0000 0000 0000 000000
2014-11-05 09:50:44,0.07,0.02,0.00,21.32,26.07,29.00,4.77,26.61,1007.77,2037.99,3453.03,3337.05,3618.27,350.04,346.66,0.28,0000 0000 0000 0000 000000
2014-11-05 09:55:45,0.08,0.02,0.00,21.33,26.07,29.00,4.82,26.62,1007.73,2037.99,3451.95,3336.55,3617.65,350.38,347.01,0.31,0000 0000 0000 0000 000000
2014-11-05 10:00:46,0.04,0.02,0.00,21.35,26.07,28.98,4.79,26.71,1007.38,2037.99,3450.90,3335.89,3616.87,350.31,346.73,0.34,0000 0000 0000 0000 000000
2014-11-05 10:05:48,0.08,0.03,0.00,21.35,26.07,29.00,4.76,26.63,1007.34,2037.99,3449.88,3335.08,3616.03,349.68,346.21,0.37,0000 0000 0000 0000 000000
2014-11-05 10:10:49,0.08,0.03,0.00,21.32,26.07,28.95,4.88,26.69,1007.34,2037.99,3448.86,3334.49,3615.16,350.45,347.07,0.40,0000 0000 0000 0000 000000
2014-11-05 10:15:50,0.09,0.03,0.00,21.29,26.07,28.96,4.72,26.66,1007.34,2037.99,3447.69,3333.70,3614.24,349.58,346.10,0.43,0000 0000 0000 0000 000000
2014-11-05 10:20:51,0.07,0.03,0.00,21.29,26.07,28.91,4.80,26.69,1007.37,2037.99,3446.46,3332.87,3613.27,349.99,346.41,0.46,0000 0000 0000 0000 000000
2014-11-05 10:25:52,0.08,0.04,0.00,21.32,26.07,28.94,4.82,26.75,1007.06,2037.99,3445.26,3332.06,3612.28,349.72,346.24,0.49,0000 0000 0000 0000 000000
2014-11-05 10:30:53,0.08,0.04,0.00,21.31,26.07,28.95,4.78,26.72,1007.29,2037.99,3444.23,3331.31,3611.45,349.68,346.19,0.52,0000 0000 0000 0000 000000
2014-11-05 10:35:55,0.04,0.04,0.00,21.28,26.07,28.96,4.78,26.68,1007.33,2038.00,3443.30,3330.87,3610.84,350.07,346.51,0.55,0000 0000 0000 0000 000000
2014-11-05 10:40:56,0.07,0.04,0.00,21.29,26.07,29.03,4.79,26.63,1007.31,2038.00,3442.29,3330.05,3610.04,349.95,346.48,0.58,0000 0000 0000 0000 000000
2014-11-05 10:45:57,0.07,0.04,0.00,21.33,26.07,28.97,4.65,26.49,1007.32,2038.00,3441.50,3329.59,3609.28,349.54,346.01,0.61,0000 0000 0000 0000 000000
2014-11-05 10:50:59,0.05,0.05,0.00,21.33,26.07,28.98,4.75,26.62,1007.03,2038.00,3440.64,3328.98,3608.70,349.71,346.30,0.63,0000 0000 0000 0000 000000
2014-11-05 10:56:00,0.07,0.05,0.00,21.33,26.07,28.99,4.84,26.58,1007.26,2038.00,3439.76,3328.19,3607.94,350.02,346.37,0.66,0000 0000 0000 0000 000000
2014-11-05 11:01:01,0.06,0.05,0.00,21.36,26.07,29.02,4.73,26.55,1007.08,2038.00,3438.79,3327.80,3607.09,349.65,346.12,0.69,0000 0000 0000 0000 000000
2014-11-05 11:06:02,0.06,0.05,0.00,21.34,26.07,28.98,4.74,26.65,1006.86,2038.00,3437.89,3327.05,3606.44,349.79,346.07,0.72,0000 0000 0000 0000 000000
2014-11-05 11:11:03,0.05,0.05,0.00,21.32,26.07,29.02,4.70,26.64,1006.85,2038.00,3436.96,3326.69,3605.83,349.73,345.92,0.75,0000 0000 0000 0000 000000
2014-11-05 11:16:04,0.06,0.06,0.00,21.32,26.07,29.02,4.84,26.69,1006.85,2038.00,3435.99,3326.00,3605.03,350.54,346.83,0.78,0000 0000 0000 0000 000000
2014-11-05 11:21:05,0.09,0.06,0.00,21.32,26.07,29.02,4.92,26.57,1006.87,2038.00,3434.91,3325.24,3604.21,350.40,346.80,0.81,0000 0000 0000 0000 000000
2014-11-05 11:26:07,0.08,0.06,0.00,21.34,26.07,29.04,4.77,26.44,1006.87,2038.00,3433.86,3324.52,3603.27,350.02,346.45,0.84,0000 0000 0000 0000 000000
2014-11-05 11:31:08,0.06,0.06,0.00,21.35,26.07,29.05,4.81,26.58,1006.85,2038.00,3432.84,3323.94,3602.62,350.52,346.78,0.87,0000 0000 0000 0000 000000
2014-11-05 11:36:09,0.09,0.07,0.00,21.37,26.07,29.03,4.76,26.62,1006.83,2038.00,3431.74,3323.09,3601.72,350.11,346.10,0.90,0000 0000 0000 0000 000000
2014-11-05 11:41:10,0.09,0.07,0.00,21.37,26.07,29.00,4.71,26.57,1006.57,2038.00,3430.49,3322.20,3600.82,349.60,345.77,0.93,0000 0000 0000 0000 000000
2014-11-05 11:46:11,0.08,0.07,0.00,21.34,26.07,29.02,4.78,26.60,1006.46,2038.00,3429.36,3321.51,3599.94,349.60,345.99,0.96,0000 0000 0000 0000 000000
2014-11-05 11:51:13,0.05,0.07,0.00,21.37,26.07,29.01,4.73,26.59,1006.40,2038.00,3428.41,3320.98,3599.11,349.88,345.99,0.99,0000 0000 0000 0000 000000
2014-11-05 11:56:14,0.08,0.08,0.00,21.36,26.07,28.99,4.83,26.59,1006.36,2038.00,3427.38,3320.17,3598.35,350.10,346.43,1.02,0000 0000 0000 0000 000000
2014-11-05 12:01:15,0.07,0.08,0.00,21.39,26.07,29.02,4.78,26.57,1006.35,2038.00,3426.40,3319.62,3597.57,349.89,346.00,1.04,0000 0000 0000 0000 000000
2014-11-05 12:06:16,0.04,0.08,0.00,21.40,26.07,28.96,4.72,26.56,1005.94,2038.00,3425.63,3319.01,3597.00,350.21,346.03,1.07,0000 0000 0000 0000 000000
2014-11-05 12:11:17,0.08,0.08,0.00,21.38,26.07,28.97,4.78,26.73,1005.89,2038.00,3424.68,3318.39,3596.27,350.25,346.13,1.10,0000 0000 0000 0000 000000
2014-11-05 12:16:19,0.06,0.08,0.00,21.35,26.07,28.95,4.82,26.82,1005.87,2038.00,3423.66,3317.83,3595.56,349.97,346.02,1.13,0000 0000 0000 0000 000000
2014-11-05 12:21:20,0.10,0.09,0.00,21.37,26.07,28.96,4.77,26.74,1005.87,2038.00,3422.30,3316.86,3594.56,350.16,346.08,1.16,0000 0000 0000 0000 000000
2014-11-05 12:26:21,0.10,0.09,0.00,21.36,26.08,28.93,4.81,26.73,1005.86,2038.00,3420.78,3315.93,3593.34,349.86,345.95,1.19,0000 0000 0000 0000 000000
2014-11-05 12:31:23,0.09,0.09,0.00,21.37,26.09,28.99,4.79,26.69,1005.87,2038.00,3419.63,3315.07,3592.52,350.34,346.17,1.22,0000 0000 0000 0000 000000
2014-11-05 12:36:24,0.08,0.09,0.00,21.40,26.09,28.99,4.80,26.82,1005.38,2038.00,3418.44,3314.28,3591.72,349.75,345.44,1.25,0000 0000 0000 0000 000000
2014-11-05 12:41:26,0.12,0.10,0.00,21.36,26.09,28.99,4.78,27.07,1004.85,2038.01,3416.75,3313.16,3590.51,350.49,346.01,1.28,0000 0000 0000 0000 000000
2014-11-05 12:46:27,0.11,0.10,0.00,21.36,26.10,28.98,4.81,27.21,1004.89,2038.02,3415.26,3311.98,3589.04,350.36,345.80,1.31,0000 0000 0000 0000 000000
2014-11-05 12:51:29,0.10,0.11,0.00,21.33,26.10,28.98,4.74,27.02,1004.95,2038.03,3414.01,3310.98,3587.75,349.59,345.06,1.34,0000 0000 0000 0000 000000
2014-11-05 12:56:30,0.10,0.11,0.00,21.35,26.10,28.96,4.78,26.88,1005.17,2038.03,3412.75,3310.06,3586.71,349.82,345.58,1.37,0000 0000 0000 0000 000000
2014-11-05 13:01:31,0.09,0.11,0.00,21.35,26.10,29.01,4.76,26.89,1004.91,2038.01,3411.46,3309.16,3585.76,349.61,345.05,1.40,0000 0000 0000 0000 000000
2014-11-05 13:06:33,0.11,0.11,0.00,21.33,26.10,29.05,4.81,27.00,1004.74,2038.02,3410.02,3308.26,3584.64,350.13,345.73,1.43,0000 0000 0000 0000 000000
2014-11-05 13:11:34,0.09,0.12,0.00,21.33,26.10,29.03,4.74,26.88,1004.86,2038.03,3408.84,3307.29,3583.57,350.17,345.69,1.45,0000 0000 0000 0000 000000
2014-11-05 13:16:35,0.09,0.12,0.00,21.32,26.10,29.05,4.77,26.95,1004.94,2038.02,3407.70,3306.43,3582.76,350.02,345.67,1.48,0000 0000 0000 0000 000000
2014-11-05 13:21:36,0.09,0.12,0.00,21.31,26.10,29.10,4.75,26.84,1005.25,2038.02,3406.53,3305.63,3581.73,349.32,345.16,1.51,0000 0000 0000 0000 000000
2014-11-05 13:26:38,0.06,0.12,0.00,21.33,26.10,29.09,4.79,26.77,1005.34,2038.00,3405.45,3304.86,3580.79,350.61,346.56,1.54,0000 0000 0000 0000 000000
2014-11-05 13:31:39,0.08,0.13,0.00,21.32,26.10,29.07,4.78,26.73,1005.26,2038.02,3404.37,3304.05,3579.94,349.94,345.88,1.57,0000 0000 0000 0000 000000
2014-11-05 13:36:40,0.09,0.13,0.00,21.30,26.10,29.08,4.80,26.74,1005.14,2038.01,3403.04,3303.25,3578.94,350.15,345.75,1.60,0000 0000 0000 0000 000000
2014-11-05 13:41:41,0.10,0.13,0.00,21.30,26.10,29.07,4.79,26.73,1005.28,2038.00,3401.80,3302.33,3577.93,350.36,346.15,1.63,0000 0000 0000 0000 000000
2014-11-05 13:46:42,0.08,0.13,0.00,21.31,26.10,29.07,4.83,26.76,1005.39,2038.00,3400.67,3301.61,3577.06,350.36,346.20,1.66,0000 0000 0000 0000 000000
2014-11-05 13:51:43,0.06,0.14,0.00,21.34,26.10,29.05,4.81,26.73,1005.40,2038.01,3399.57,3300.93,3576.15,350.82,346.31,1.69,0000 0000 0000 0000 000000
2014-11-05 13:56:45,0.09,0.14,0.00,21.37,26.09,29.07,4.82,26.77,1005.37,2038.01,3398.42,3300.08,3575.45,350.04,345.86,1.72,0000 0000 0000 0000 000000
2014-11-05 14:01:46,0.08,0.14,0.00,21.37,26.09,29.05,4.74,26.82,1005.06,2038.01,3397.44,3299.41,3574.54,349.83,345.58,1.75,0000 0000 0000 0000 000000
2014-11-05 14:06:47,0.06,0.14,0.00,21.37,26.09,29.04,4.83,26.84,1004.90,2038.01,3396.33,3298.75,3573.79,350.33,346.15,1.78,0000 0000 0000 0000 000000
2014-11-05 14:11:48,0.06,0.15,0.00,21.33,26.08,29.01,4.73,26.85,1004.90,2038.01,3395.22,3298.03,3573.02,350.16,345.63,1.81,0000 0000 0000 0000 000000
2014-11-05 14:16:50,0.09,0.15,0.00,21.35,26.08,29.05,4.81,27.00,1004.90,2038.01,3394.20,3297.31,3572.23,350.30,346.00,1.84,0000 0000 0000 0000 000000
2014-11-05 14:21:51,0.06,0.15,0.00,21.38,26.09,29.02,4.77,26.95,1004.90,2038.02,3393.23,3296.75,3571.57,350.07,345.82,1.86,0000 0000 0000 0000 000000
2014-11-05 14:26:53,0.06,0.15,0.00,21.40,26.09,28.97,4.84,26.93,1004.90,2038.01,3392.20,3296.01,3570.73,349.91,345.63,1.89,0000 0000 0000 0000 000000
2014-11-05 14:31:54,0.08,0.16,0.00,21.41,26.09,28.99,4.79,26.89,1004.90,2038.04,3391.14,3295.25,3569.94,350.57,345.88,1.92,0000 0000 0000 0000 000000
2014-11-05 14:36:55,0.09,0.16,0.00,21.39,26.09,28.97,4.80,26.87,1004.90,2038.03,3389.95,3294.45,3569.04,350.46,346.08,1.95,0000 0000 0000 0000 000000
2014-11-05 14:41:56,0.09,0.16,0.00,21.40,26.09,28.91,4.81,26.91,1004.90,2038.04,3388.80,3293.59,3568.09,350.33,345.88,1.98,0000 0000 0000 0000 000000
2014-11-05 14:46:58,0.09,0.16,0.00,21.41,26.10,28.94,4.73,26.95,1004.87,2038.04,3387.60,3292.73,3567.21,350.07,345.37,2.01,0000 0000 0000 0000 000000
2014-11-05 14:51:59,0.08,0.17,0.00,21.42,26.10,28.95,4.76,26.88,1004.51,2038.04,3386.29,3291.92,3566.17,350.22,345.38,2.04,0000 0000 0000 0000 000000
2014-11-05 14:57:00,0.08,0.17,0.00,21.43,26.10,28.95,4.67,26.94,1004.41,2038.03,3384.99,3290.99,3565.25,349.56,344.93,2.07,0000 0000 0000 0000 000000
2014-11-05 15:02:02,0.11,0.17,0.00,21.42,26.10,28.93,4.80,27.04,1004.26,2038.05,3383.67,3290.07,3564.22,349.76,345.10,2.10,0000 0000 0000 0000 000000
2014-11-05 15:07:03,0.10,0.18,0.00,21.41,26.10,28.94,4.75,27.02,1003.95,2038.04,3382.28,3289.13,3563.14,349.64,344.95,2.13,0000 0000 0000 0000 000000
2014-11-05 15:12:04,0.12,0.18,0.00,21.41,26.10,29.00,4.76,27.02,1003.92,2038.07,3380.75,3288.13,3561.99,350.22,345.32,2.16,0000 0000 0000 0000 000000
2014-11-05 15:17:05,0.15,0.18,0.00,21.41,26.10,28.99,4.75,27.04,1003.77,2038.06,3378.90,3286.80,3560.58,349.88,344.98,2.19,0000 0000 0000 0000 000000
2014-11-05 15:22:06,0.13,0.19,0.00,21.39,26.11,29.01,4.88,26.98,1003.48,2038.13,3377.16,3285.61,3559.18,351.15,346.03,2.22,0000 0000 0000 0000 000000
2014-11-05 15:27:07,0.14,0.19,0.00,21.38,26.12,29.03,4.70,26.94,1003.44,2038.11,3375.43,3284.35,3557.70,349.78,344.93,2.25,0000 0000 0000 0000 000000
2014-11-05 15:32:09,0.15,0.20,0.00,21.36,26.12,29.00,4.72,26.93,1003.43,2038.27,3373.57,3283.09,3556.35,349.89,345.16,2.27,0000 0000 0000 0000 000000
2014-11-05 15:37:10,0.15,0.20,0.00,21.35,26.12,29.11,4.72,27.00,1003.42,2038.17,3371.53,3281.65,3554.69,349.85,345.04,2.30,0000 0000 0000 0000 000000
2014-11-05 15:42:11,0.18,0.20,0.00,21.32,26.12,29.13,4.82,27.07,1003.30,2038.22,3369.42,3280.15,3553.06,350.67,345.73,2.33,0000 0000 0000 0000 000000
2014-11-05 15:47:13,0.15,0.21,0.00,21.30,26.12,29.12,4.81,27.02,1003.02,2038.28,3367.34,3278.67,3551.36,349.83,344.64,2.36,0000 0000 0000 0000 000000
2014-11-05 15:52:14,0.21,0.22,0.00,21.25,26.12,29.13,4.80,27.06,1003.31,2038.42,3364.99,3277.05,3549.54,350.31,345.51,2.39,0000 0000 0000 0000 000000
2014-11-05 15:57:16,0.20,0.22,0.00,21.26,26.12,29.16,4.79,27.15,1003.42,2038.64,3362.73,3275.49,3547.78,350.02,345.10,2.42,0000 0000 0000 0000 000000
2014-11-05 16:02:17,0.18,0.23,0.00,21.26,26.12,29.17,4.80,27.08,1003.34,2038.59,3360.31,3273.72,3545.90,350.18,345.36,2.45,0000 0000 0000 0000 000000
2014-11-05 16:07:18,0.21,0.23,0.00,21.20,26.12,29.16,4.80,27.03,1003.04,2038.84,3357.84,3272.11,3544.10,350.35,345.42,2.48,0000 0000 0000 0000 000000
2014-11-05 16:12:20,0.18,0.24,0.00,21.17,26.11,29.17,4.79,26.97,1003.00,2038.86,3355.44,3270.40,3542.11,350.00,345.16,2.51,0000 0000 0000 0000 000000
2014-11-05 16:17:21,0.19,0.24,0.00,21.19,26.10,29.19,4.76,27.11,1002.97,2038.91,3353.14,3268.73,3540.25,349.85,344.99,2.54,0000 0000 0000 0000 000000
2014-11-05 16:22:22,0.20,0.25,0.00,21.19,26.10,29.20,4.80,27.07,1002.95,2038.95,3350.63,3266.98,3538.31,350.71,345.82,2.57,0000 0000 0000 0000 000000
2014-11-05 16:27:24,0.18,0.26,0.00,21.16,26.10,29.16,4.77,26.82,1003.04,2038.92,3348.13,3265.27,3536.29,350.13,345.51,2.60,0000 0000 0000 0000 000000
2014-11-05 16:32:25,0.19,0.26,0.00,21.15,26.09,29.18,4.78,26.88,1003.08,2038.93,3345.63,3263.58,3534.34,349.75,344.91,2.63,0000 0000 0000 0000 000000
2014-11-05 16:37:27,0.18,0.27,0.00,21.15,26.07,29.16,4.82,26.91,1003.12,2038.91,3343.14,3261.90,3532.32,350.17,345.27,2.66,0000 0000 0000 0000 000000
2014-11-05 16:42:28,0.18,0.27,0.00,21.15,26.07,29.13,4.81,26.95,1003.07,2038.91,3340.60,3260.21,3530.42,350.38,345.68,2.68,0000 0000 0000 0000 000000
2014-11-05 16:47:29,0.19,0.28,0.00,21.17,26.07,29.13,4.83,26.93,1003.08,2038.95,3338.27,3258.59,3528.59,350.10,345.32,2.71,0000 0000 0000 0000 000000
2014-11-05 16:52:30,0.17,0.28,0.00,21.16,26.05,29.13,4.78,26.81,1002.95,2038.98,3335.91,3257.01,3526.81,349.37,344.47,2.74,0000 0000 0000 0000 000000
2014-11-05 16:57:32,0.19,0.29,0.00,21.16,26.05,29.12,4.79,26.91,1002.94,2038.98,3333.43,3255.37,3525.02,349.91,344.99,2.77,0000 0000 0000 0000 000000
2014-11-05 17:02:33,0.20,0.29,0.00,21.15,26.05,29.07,4.74,26.88,1002.94,2038.99,3330.97,3253.64,3523.06,349.66,344.93,2.80,0000 0000 0000 0000 000000
2014-11-05 17:07:34,0.19,0.30,0.00,21.14,26.03,29.07,4.72,26.91,1002.93,2038.99,3328.44,3251.82,3521.06,349.36,344.65,2.83,0000 0000 0000 0000 000000
2014-11-05 17:12:35,0.16,0.31,0.00,21.11,26.02,29.06,4.84,27.12,1002.77,2038.99,3326.16,3250.22,3519.31,350.56,345.73,2.86,0000 0000 0000 0000 000000
2014-11-05 17:17:36,0.19,0.31,0.00,21.11,26.02,29.04,4.81,26.99,1002.92,2038.99,3323.74,3248.54,3517.48,350.21,345.47,2.89,0000 0000 0000 0000 000000
2014-11-05 17:22:37,0.17,0.32,0.00,21.10,26.01,29.03,4.69,27.04,1002.84,2038.99,3321.42,3246.99,3515.68,349.46,344.92,2.92,0000 0000 0000 0000 000000
2014-11-05 17:27:38,0.17,0.32,0.00,21.12,26.00,29.04,4.77,27.18,1002.60,2039.00,3319.26,3245.44,3513.85,350.00,345.30,2.95,0000 0000 0000 0000 000000
2014-11-05 17:32:39,0.17,0.33,0.00,21.12,26.00,29.03,4.83,27.13,1002.50,2039.00,3316.99,3243.84,3512.14,350.68,345.79,2.98,0000 0000 0000 0000 000000
2014-11-05 17:37:40,0.17,0.33,0.00,21.11,26.00,28.99,4.73,27.01,1002.46,2039.00,3314.66,3242.21,3510.31,350.43,345.47,3.01,0000 0000 0000 0000 000000
2014-11-05 17:42:41,0.17,0.34,0.00,21.12,25.99,29.00,4.67,27.02,1002.44,2039.01,3312.47,3240.76,3508.66,349.63,344.65,3.04,0000 0000 0000 0000 000000
2014-11-05 17:47:43,0.17,0.34,0.00,21.09,25.97,29.01,4.77,27.12,1002.23,2039.01,3310.30,3239.23,3506.87,350.57,345.53,3.07,0000 0000 0000 0000 000000
2014-11-05 17:52:44,0.17,0.35,0.00,21.07,25.97,28.99,4.74,27.03,1002.07,2039.01,3308.09,3237.66,3505.07,350.37,345.32,3.09,0000 0000 0000 0000 000000
2014-11-05 17:57:45,0.15,0.35,0.00,21.09,25.97,28.98,4.82,27.10,1002.15,2039.01,3306.00,3236.18,3503.45,350.24,345.22,3.12,0000 0000 0000 0000 000000
2014-11-05 18:02:47,0.17,0.36,0.00,21.11,25.96,28.98,4.75,27.07,1002.39,2039.01,3303.96,3234.75,3501.77,350.07,345.24,3.15,0000 0000 0000 0000 000000
2014-11-05 18:07:48,0.14,0.36,0.00,21.11,25.95,28.98,4.83,27.04,1002.45,2039.00,3301.94,3233.36,3500.21,350.59,345.66,3.18,0000 0000 0000 0000 000000
2014-11-05 18:12:50,0.14,0.37,0.00,21.13,25.95,28.96,4.83,26.91,1002.40,2039.01,3300.03,3232.04,3498.69,350.36,345.27,3.21,0000 0000 0000 0000 000000
2014-11-05 18:17:51,0.16,0.37,0.00,21.14,25.95,28.94,4.74,27.07,1002.04,2039.01,3298.05,3230.59,3497.08,349.64,344.58,3.24,0000 0000 0000 0000 000000
2014-11-05 18:22:52,0.14,0.37,0.00,21.11,25.95,28.93,4.73,27.10,1001.96,2039.01,3296.13,3229.27,3495.56,349.75,344.62,3.27,0000 0000 0000 0000 000000
2014-11-05 18:27:53,0.16,0.38,0.00,21.10,25.94,28.90,4.70,27.07,1001.97,2039.01,3294.15,3227.84,3493.97,349.57,344.74,3.30,0000 0000 0000 0000 000000
2014-11-05 18:32:55,0.14,0.38,0.00,21.09,25.93,28.94,4.75,26.98,1001.98,2039.01,3292.18,3226.51,3492.39,350.33,345.18,3.33,0000 0000 0000 0000 000000
2014-11-05 18:37:56,0.14,0.39,0.00,21.09,25.92,28.92,4.80,26.96,1001.99,2039.01,3290.25,3225.14,3490.82,349.77,344.76,3.36,0000 0000 0000 0000 000000
2014-11-05 18:42:57,0.14,0.39,0.00,21.09,25.92,28.93,4.79,27.03,1001.98,2039.01,3288.45,3223.86,3489.47,350.14,344.81,3.39,0000 0000 0000 0000 000000
2014-11-05 18:47:59,0.15,0.40,0.00,21.10,25.92,28.93,4.72,26.93,1001.97,2039.05,3286.67,3222.64,3487.97,350.32,345.06,3.42,0000 0000 0000 0000 000000
2014-11-05 18:52:59,0.15,0.40,0.00,21.13,25.92,28.93,4.75,26.88,1001.97,2039.02,3284.72,3221.31,3486.46,350.20,345.06,3.45,0000 0000 0000 0000 000000
2014-11-05 18:58:01,0.14,0.40,0.00,21.14,25.92,28.94,4.80,26.93,1001.96,2039.02,3282.82,3219.95,3484.91,350.42,345.34,3.48,0000 0000 0000 0000 000000
2014-11-05 19:03:02,0.15,0.41,0.00,21.15,25.92,28.90,4.78,26.99,1001.86,2039.03,3280.91,3218.62,3483.43,350.12,344.93,3.50,0000 0000 0000 0000 000000
2014-11-05 19:08:03,0.13,0.41,0.00,21.15,25.92,28.91,4.63,26.94,1001.83,2039.05,3279.17,3217.40,3482.05,349.73,344.51,3.53,0000 0000 0000 0000 000000
2014-11-05 19:13:05,0.13,0.42,0.00,21.16,25.91,28.88,4.69,26.97,1001.69,2039.05,3277.39,3216.25,3480.69,349.84,344.68,3.56,0000 0000 0000 0000 000000
2014-11-05 19:18:06,0.14,0.42,0.00,21.15,25.90,28.88,4.84,26.91,1001.63,2039.04,3275.51,3214.91,3479.26,350.03,344.81,3.59,0000 0000 0000 0000 000000
2014-11-05 19:23:07,0.15,0.43,0.00,21.16,25.90,28.85,4.67,26.89,1001.90,2039.03,3273.68,3213.60,3477.72,349.44,344.39,3.62,0000 0000 0000 0000 000000
2014-11-05 19:28:08,0.13,0.43,0.00,21.16,25.90,28.86,4.70,26.97,1001.97,2039.05,3271.90,3212.43,3476.46,349.95,345.06,3.65,0000 0000 0000 0000 000000
2014-11-05 19:33:09,0.14,0.43,0.00,21.19,25.90,28.86,4.84,26.88,1001.97,2039.01,3269.98,3211.05,3474.86,350.20,345.11,3.68,0000 0000 0000 0000 000000
2014-11-05 19:38:10,0.16,0.44,0.00,21.21,25.90,28.87,4.75,26.93,1001.89,2039.03,3267.97,3209.64,3473.40,349.67,344.24,3.71,0000 0000 0000 0000 000000
2014-11-05 19:43:12,0.13,0.44,0.00,21.25,25.90,28.81,4.78,26.98,1001.59,2039.03,3266.16,3208.43,3471.90,350.11,344.70,3.74,0000 0000 0000 0000 000000
2014-11-05 19:48:13,0.14,0.45,0.00,21.23,25.90,28.83,4.80,26.98,1001.48,2039.04,3264.38,3207.19,3470.50,349.74,344.08,3.77,0000 0000 0000 0000 000000
2014-11-05 19:53:14,0.14,0.45,0.00,21.25,25.90,28.80,4.72,26.88,1001.33,2039.08,3262.72,3205.94,3469.20,349.93,344.51,3.80,0000 0000 0000 0000 000000
2014-11-05 19:58:16,0.16,0.46,0.00,21.25,25.90,28.79,4.73,26.97,1001.03,2039.10,3260.82,3204.58,3467.72,350.16,344.44,3.83,0000 0000 0000 0000 000000
2014-11-05 20:03:17,0.14,0.46,0.00,21.27,25.91,28.74,4.80,27.07,1000.99,2039.11,3258.87,3203.28,3466.26,350.35,344.70,3.86,0000 0000 0000 0000 000000
2014-11-05 20:08:18,0.15,0.47,0.00,21.29,25.92,28.74,4.72,26.95,1000.99,2039.06,3256.89,3201.85,3464.71,349.91,344.57,3.89,0000 0000 0000 0000 000000
2014-11-05 20:13:19,0.16,0.47,0.00,21.31,25.92,28.75,4.79,27.05,1000.94,2039.05,3254.87,3200.49,3463.10,350.54,344.78,3.91,0000 0000 0000 0000 000000
2014-11-05 20:18:20,0.15,0.48,0.00,21.30,25.92,28.78,4.80,27.13,1000.91,2039.06,3252.80,3199.03,3461.44,350.28,344.58,3.94,0000 0000 0000 0000 000000